Weather History for Aurora, NE

Change the Weather History Date:

Tuesday, March 19, 2013

  Actual Average Record
Temperature  
Mean Temperature 39 °F -  
Max Temperature 51 °F 49 °F 76 °F (1972)
Min Temperature 28 °F 28 °F 1 °F (1965)
Degree Days  
Heating Degree Days 26    
Moisture  
Dew Point 23 °F    
Average Humidity 56    
Maximum Humidity 87    
Minimum Humidity 31    
Precipitation  
Precipitation 0.00 in - - ()
Sea Level Pressure  
Sea Level Pressure 30.14 in    
Wind  
Wind Speed 7 mph (NW)    
Max Wind Speed 24 mph    
Max Gust Speed 31 mph    
Visibility 10 miles    
Events Thunderstorm    
Averages and records for this station are not official NWS values.
T = Trace of Precipitation, MM = Missing Value Source: NWS Daily Summary

Daily Weather History Graph

Daily Weather History Graph

Search for Another Location

Airport:

Trip Planner

Search our weather history database for the weather conditions in past years. The results will help you decide how hot, cold, wet, or windy it might be!

Date:

Astronomy

Mar. 19, 2013 Rise Set
Actual Time 7:36 AM CDT 7:43 PM CDT
Civil Twilight 7:09 AM CDT 8:10 PM CDT
Nautical Twilight 6:37 AM CDT 8:42 PM CDT
Astronomical Twilight 6:04 AM CDT 9:15 PM CDT
Moon 12:25 PM CDT (3/19) 2:33 AM CDT (3/19)
Length of Visible Light 13h 01m
Length of Day
12h 06m
Waxing Crescent, 50% of the Moon is Illuminated
Mar 19
Waxing Crescent
Mar 19
First Quarter
Mar 27
Full
Apr 2
Last Quarter
Apr 10
New

Hourly Weather History & Observations

Time (CDT) Temp. Windchill Dew Point Humidity Pressure Visibility Wind Dir Wind Speed Gust Speed Precip Events Conditions
12:15 AM 32.0 °F - 18.7 °F 58% 30.04 in 10.0 mi Calm Calm - N/A   Overcast
12:35 AM 32.0 °F - 19.9 °F 61% 30.05 in 10.0 mi Calm Calm - N/A   Overcast
12:55 AM 31.1 °F - 21.6 °F 68% 30.05 in 10.0 mi Calm Calm - N/A   Overcast
1:15 AM 30.6 °F 27.1 °F 22.6 °F 72% 30.05 in 10.0 mi West 3.5 mph - N/A   Overcast
1:35 AM 30.2 °F 25.4 °F 23.9 °F 77% 30.06 in 10.0 mi WSW 4.6 mph - N/A   Overcast
1:55 AM 30.9 °F 27.5 °F 23.0 °F 72% 30.06 in 10.0 mi SW 3.5 mph - N/A   Overcast
2:15 AM 31.1 °F - 22.1 °F 69% 30.05 in 10.0 mi Calm Calm - N/A   Overcast
2:35 AM 30.7 °F - 23.2 °F 74% 30.05 in 10.0 mi Calm Calm - N/A   Overcast
2:55 AM 30.2 °F 26.7 °F 22.6 °F 73% 30.06 in 10.0 mi West 3.5 mph - N/A   Overcast
3:15 AM 30.2 °F - 22.5 °F 73% 30.06 in 10.0 mi Calm Calm - N/A   Overcast
3:35 AM 30.2 °F 26.7 °F 23.5 °F 76% 30.05 in 10.0 mi WSW 3.5 mph - N/A   Mostly Cloudy
3:55 AM 30.2 °F 26.7 °F 22.6 °F 73% 30.04 in 10.0 mi WSW 3.5 mph - N/A   Scattered Clouds
4:15 AM 30.7 °F - 21.7 °F 69% 30.03 in 10.0 mi Calm Calm - N/A   Clear
5:15 AM 30.6 °F 24.7 °F 20.3 °F 66% 30.04 in 10.0 mi SSW 5.8 mph - N/A   Mostly Cloudy
5:35 AM 30.7 °F 27.3 °F 21.2 °F 68% 30.04 in 10.0 mi South 3.5 mph - N/A   Overcast
6:35 AM 28.9 °F 23.9 °F 21.9 °F 75% 30.05 in 10.0 mi SSE 4.6 mph - N/A   Mostly Cloudy
7:35 AM 31.8 °F 25.4 °F 17.8 °F 56% 30.07 in 10.0 mi SSW 6.9 mph - N/A   Overcast
7:55 AM 32.0 °F 27.5 °F 20.5 °F 63% 30.08 in 10.0 mi SSW 4.6 mph - N/A   Overcast
8:15 AM 31.8 °F 27.3 °F 24.1 °F 73% 30.09 in 10.0 mi SSW 4.6 mph - N/A   Overcast
8:35 AM 32.0 °F 28.7 °F 26.4 °F 80% 30.10 in 10.0 mi SSW 3.5 mph - N/A   Overcast
8:55 AM 32.9 °F 27.5 °F 27.5 °F 81% 30.11 in 10.0 mi SW 5.8 mph - N/A   Mostly Cloudy
9:15 AM 33.8 °F 28.6 °F 28.9 °F 82% 30.11 in 10.0 mi SSW 5.8 mph - N/A   Mostly Cloudy
9:35 AM 34.7 °F 28.8 °F 30.6 °F 85% 30.12 in 10.0 mi SW 6.9 mph - N/A   Overcast
9:55 AM 35.1 °F 29.3 °F 31.6 °F 87% 30.12 in 10.0 mi SW 6.9 mph - N/A   Overcast
10:15 AM 36.0 °F 30.3 °F 32.0 °F 86% 30.13 in 10.0 mi WSW 6.9 mph - N/A   Mostly Cloudy
10:35 AM 37.2 °F 30.6 °F 32.0 °F 81% 30.13 in 10.0 mi West 9.2 mph - N/A   Mostly Cloudy
10:55 AM 38.7 °F 32.4 °F 32.0 °F 77% 30.14 in 10.0 mi WSW 9.2 mph - N/A   Scattered Clouds
11:15 AM 41.2 °F 34.5 °F 31.8 °F 69% 30.14 in 10.0 mi West 11.5 mph - N/A   Scattered Clouds
11:35 AM 42.1 °F 34.5 °F 31.5 °F 66% 30.15 in 10.0 mi West 15.0 mph 19.6 mph N/A   Scattered Clouds
11:55 AM 44.4 °F 35.5 °F 31.1 °F 60% 30.15 in 10.0 mi West 24.2 mph 28.8 mph N/A   Clear
12:15 PM 43.7 °F 35.7 °F 30.0 °F 59% 30.15 in 10.0 mi West 18.4 mph 24.2 mph N/A   Clear
12:35 PM 47.1 °F - 29.7 °F 51% 30.15 in 10.0 mi West 23.0 mph 31.1 mph N/A   Clear
12:55 PM 46.0 °F 39.0 °F 25.9 °F 45% 30.15 in 10.0 mi WNW 17.3 mph 25.3 mph N/A   Scattered Clouds
1:15 PM 47.3 °F - 23.9 °F 40% 30.15 in 10.0 mi NW 19.6 mph 23.0 mph N/A   Clear
1:35 PM 49.5 °F - 26.1 °F 40% 30.13 in 10.0 mi WNW 20.7 mph 27.6 mph N/A   Scattered Clouds
1:55 PM 48.6 °F - 24.8 °F 39% 30.13 in 10.0 mi WNW 13.8 mph 23.0 mph N/A   Scattered Clouds
2:15 PM 49.1 °F - 22.8 °F 36% 30.12 in 10.0 mi NW 18.4 mph 25.3 mph N/A Thunderstorm Mostly Cloudy
2:35 PM 49.3 °F - 22.6 °F 35% 30.12 in 10.0 mi NNW 17.3 mph 21.9 mph N/A   Overcast
2:55 PM 50.0 °F - 22.3 °F 34% 30.12 in 10.0 mi NW 18.4 mph 21.9 mph N/A   Overcast
3:15 PM 50.0 °F - 22.8 °F 34% 30.11 in 10.0 mi North 17.3 mph - N/A   Overcast
3:35 PM 50.2 °F - 21.2 °F 32% 30.11 in 10.0 mi NW 15.0 mph 26.5 mph N/A   Overcast
3:55 PM 50.2 °F - 21.7 °F 33% 30.11 in 10.0 mi North 16.1 mph 21.9 mph N/A   Overcast
4:15 PM 49.1 °F - 21.2 °F 33% 30.11 in 10.0 mi NW 6.9 mph - N/A   Overcast
4:35 PM 50.0 °F - 19.9 °F 31% 30.12 in 10.0 mi NW 13.8 mph - N/A   Overcast
4:55 PM 49.1 °F - 21.2 °F 33% 30.12 in 10.0 mi NNW 11.5 mph - N/A   Overcast
5:15 PM 48.6 °F - 21.4 °F 34% 30.13 in 10.0 mi NW 19.6 mph - N/A   Overcast
5:35 PM 48.7 °F - 19.8 °F 32% 30.13 in 10.0 mi North 16.1 mph 21.9 mph N/A   Mostly Cloudy
5:55 PM 48.6 °F - 19.4 °F 32% 30.15 in 10.0 mi NNW 19.6 mph 23.0 mph N/A   Mostly Cloudy
6:15 PM 47.8 °F - 19.8 °F 33% 30.15 in 10.0 mi North 15.0 mph - N/A   Overcast
6:35 PM 46.9 °F - 19.9 °F 34% 30.15 in 10.0 mi North 13.8 mph - N/A   Scattered Clouds
6:55 PM 45.5 °F 39.6 °F 20.5 °F 37% 30.16 in 10.0 mi North 12.7 mph - N/A   Scattered Clouds
7:15 PM 45.1 °F 39.5 °F 19.9 °F 37% 30.18 in 10.0 mi North 11.5 mph - N/A   Scattered Clouds
7:35 PM 43.3 °F 37.2 °F 21.6 °F 42% 30.18 in 10.0 mi North 11.5 mph - N/A   Clear
7:55 PM 42.1 °F 36.1 °F 21.4 °F 44% 30.19 in 10.0 mi North 10.4 mph - N/A   Clear
8:15 PM 41.5 °F 35.0 °F 21.2 °F 44% 30.20 in 10.0 mi North 11.5 mph - N/A   Scattered Clouds
8:35 PM 40.3 °F 33.0 °F 20.8 °F 46% 30.21 in 10.0 mi North 12.7 mph - N/A   Mostly Cloudy
8:55 PM 39.2 °F 32.5 °F 21.4 °F 49% 30.22 in 10.0 mi North 10.4 mph - N/A   Overcast
9:15 PM 37.9 °F 31.5 °F 21.9 °F 53% 30.23 in 10.0 mi North 9.2 mph - N/A   Overcast
9:35 PM 37.0 °F 30.4 °F 21.4 °F 53% 30.25 in 10.0 mi North 9.2 mph - N/A   Mostly Cloudy
9:55 PM 36.9 °F 29.1 °F 19.8 °F 50% 30.27 in 10.0 mi North 11.5 mph - N/A   Mostly Cloudy
10:15 PM 36.3 °F 27.5 °F 19.0 °F 50% 30.27 in 10.0 mi North 13.8 mph 18.4 mph N/A   Overcast
10:35 PM 34.7 °F 26.9 °F 20.3 °F 56% 30.28 in 10.0 mi North 10.4 mph - N/A   Scattered Clouds
10:55 PM 34.5 °F 24.8 °F 21.4 °F 59% 30.30 in 10.0 mi North 15.0 mph 19.6 mph N/A   Mostly Cloudy
11:15 PM 33.8 °F 24.8 °F 22.1 °F 62% 30.31 in 10.0 mi North 12.7 mph 17.3 mph N/A   Overcast
11:35 PM 32.0 °F 20.5 °F 21.9 °F 66% 30.32 in 10.0 mi NNE 18.4 mph - N/A   Scattered Clouds
11:55 PM 30.2 °F 19.3 °F 21.6 °F 70% 30.33 in 10.0 mi North 15.0 mph 23.0 mph N/A   Clear